FW5697 Weather Reports


time (UTC)temp
C
wind
direction
speed
KPH
gust
KPH
rain 1hr
cm
rain 24hr
cm
rain mn
cm
humidity
%
barometer
mb
20260503031527 10 0 0.0 0.0 0.00 0.41 0.41 72 1016.3
20260503030026 11 0 0.0 0.0 0.00 0.41 0.41 69 1016.1
20260503024532 11 0 0.0 0.0 0.00 0.41 0.41 66 1015.9
20260503023030 12 0 0.0 0.0 0.00 0.41 0.41 62 1015.7
20260503021529 12 0 0.0 0.0 0.00 0.41 0.41 57 1015.5
20260503020027 13 0 0.0 0.0 0.00 0.41 0.41 57 1015.3
20260503014541 14 0 0.0 1.6 0.00 0.41 0.41 50 1015.1
20260503013033 15 0 0.0 1.6 0.00 0.41 0.41 49 1015.0
20260503011530 15 0 0.0 3.2 0.00 0.41 0.41 45 1014.7
20260503010036 16 72 1.6 4.8 0.00 0.41 0.41 42 1014.4
20260503004530 16 134 0.0 4.8 0.00 0.41 0.41 40 1014.2
20260503003028 16 52 1.6 14.5 0.00 0.41 0.41 39 1013.9
20260503001528 17 29 1.6 12.9 0.00 0.41 0.41 37 1013.5
20260503000029 17 75 3.2 12.9 0.00 0.41 0.41 36 1013.3
20260502234529 17 45 3.2 12.9 0.00 0.41 0.41 35 1013.0
20260502233028 18 360 3.2 17.7 0.00 0.41 0.41 33 1012.8
20260502231528 18 344 3.2 14.5 0.00 0.41 0.41 35 1012.7
20260502230026 19 215 4.8 17.7 0.00 0.41 0.41 34 1012.3
20260502224530 19 185 3.2 17.7 0.00 0.41 0.41 34 1012.2
20260502223034 20 26 3.2 19.3 0.00 0.41 0.41 36 1012.1
20260502221529 20 53 1.6 11.3 0.00 0.41 0.41 36 1011.9
20260502220028 21 175 3.2 17.7 0.00 0.41 0.41 35 1011.6
20260502214530 20 205 3.2 14.5 0.00 0.41 0.41 36 1011.5
20260502213030 21 360 3.2 14.5 0.00 0.41 0.41 35 1011.2
20260502211540 21 0 4.8 16.1 0.00 0.41 0.41 38 1011.1
20260502210034 21 176 3.2 19.3 0.00 0.41 0.41 41 1011.0
20260502204527 21 121 3.2 19.3 0.00 0.41 0.41 40 1011.0
20260502203029 21 161 3.2 14.5 0.00 0.41 0.41 46 1010.7
20260502201528 21 153 3.2 16.1 0.00 0.41 0.41 46 1010.8
20260502200028 21 170 3.2 16.1 0.00 0.41 0.41 48 1011.0
20260502194526 20 214 1.6 12.9 0.00 0.41 0.41 50 1011.1
20260502193030 21 221 3.2 12.9 0.00 0.41 0.41 50 1011.0
20260502191527 20 0 1.6 6.4 0.00 0.41 0.41 52 1011.0
20260502190034 20 40 1.6 9.7 0.00 0.41 0.41 51 1011.1
20260502184545 20 42 1.6 6.4 0.00 0.41 0.41 53 1011.3
20260502183047 20 28 4.8 12.9 0.00 0.41 0.41 53 1011.3
20260502181538 20 207 4.8 19.3 0.00 0.41 0.41 54 1011.5
20260502163039 17 344 0.0 8.0 0.00 0.41 0.41 75 1012.4
20260502161528 16 212 1.6 8.0 0.00 0.41 0.41 78 1012.5
20260502151534 14 229 1.6 6.4 0.00 0.41 0.41 88 1012.2
20260502123028 13 0 0.0 1.6 0.03 0.36 0.36 96 1011.8
20260502121528 13 0 0.0 3.2 0.03 0.36 0.36 96 1011.3
20260502114527 13 202 0.0 4.8 0.05 0.36 0.36 97 1011.5
20260502113029 13 0 0.0 1.6 0.03 0.33 0.33 97 1010.6
20260502111528 13 0 0.0 3.2 0.03 0.33 0.33 97 1011.5
20260502110036 13 159 0.0 4.8 0.00 0.30 0.30 96 1012.1
20260502104527 13 187 1.6 6.4 0.00 0.30 0.30 97 1012.3
20260502103033 13 173 1.6 3.2 0.00 0.30 0.30 97 1011.7
20260502101544 13 173 0.0 1.6 0.03 0.30 0.30 96 1011.1
20260502091532 13 0 0.0 0.0 0.08 0.28 0.28 96 1011.0
20260502071529 13 0 0.0 0.0 0.10 0.15 0.15 95 1011.4
20260502070050 13 0 0.0 0.0 0.10 0.13 0.13 95 1012.0
20260502064529 13 0 0.0 3.2 0.08 0.10 0.10 95 1012.2
20260502063036 13 0 0.0 0.0 0.08 0.08 0.08 95 1012.5
20260502061527 13 0 0.0 0.0 0.05 0.05 0.05 95 1012.4
20260502060030 13 0 0.0 0.0 0.03 0.03 0.03 94 1012.4
20260502054530 13 0 0.0 0.0 0.03 0.03 0.03 94 1012.1
20260502053027 13 0 0.0 0.0 0.00 0.00 0.00 94 1012.5
20260502051528 13 0 0.0 0.0 0.00 0.00 0.00 94 1012.2
20260502050028 13 0 0.0 0.0 0.00 0.00 0.00 93 1012.4
20260502044528 13 0 0.0 0.0 0.00 0.00 0.00 93 1012.4
20260502043031 13 0 0.0 0.0 0.00 0.00 0.00 93 1012.5
20260502041528 13 0 0.0 0.0 0.00 0.00 0.00 93 1013.0
20260502040029 14 0 0.0 0.0 0.00 0.00 0.00 92 1013.2
20260502034530 14 0 0.0 0.0 0.00 0.00 0.00 92 1013.1
20260502033029 14 0 0.0 0.0 0.00 0.00 0.00 91 1013.1